Voltar ao catálogo

KUIPER-00164

AtivoComunicaçõesLEO
NORAD 67134·PAYLOAD·🇺🇸 United States

Lançado Dec 15, 2025 de Cape Canaveral Space Force Station

Loading…

Próximas Passagens (próximas 24 horas)

TLE

AtualizadoSource: CelesTrak SupGP

Época: Sep 14, 2026, 19:46 UTC

1 67134C 25301B   26257.82373843  .00000662  00000+0  86665-4 0  2577
2 67134  51.9031 311.7954 0000379  71.7693 195.4707 14.79927652    10

Acompanhe KUIPER-00164 em tempo real com AllMySat

Download on the App Store